[{"OBJECT_NAME":"HISAKI (SPRINT-A)","OBJECT_ID":"2013-049A","EPOCH":"2026-09-12T00:48:59.075712","MEAN_MOTION":13.55550441,"ECCENTRICITY":0.01364895,"INCLINATION":29.7188,"RA_OF_ASC_NODE":138.4712,"ARG_OF_PERICENTER":0.8446,"MEAN_ANOMALY":359.234,"EPHEMERIS_TYPE":0,"CLASSIFICATION_TYPE":"U","NORAD_CAT_ID":39253,"ELEMENT_SET_NO":999,"REV_AT_EPOCH":64321,"BSTAR":0.000065412102,"MEAN_MOTION_DOT":0.00000112,"MEAN_MOTION_DDOT":0},{"OBJECT_NAME":"CASSIOPE","OBJECT_ID":"2013-055A","EPOCH":"2026-09-12T05:57:00.072864","MEAN_MOTION":15.31351897,"ECCENTRICITY":0.02702952,"INCLINATION":80.9139,"RA_OF_ASC_NODE":320.5083,"ARG_OF_PERICENTER":127.5442,"MEAN_ANOMALY":235.069,"EPHEMERIS_TYPE":0,"CLASSIFICATION_TYPE":"U","NORAD_CAT_ID":39265,"ELEMENT_SET_NO":999,"REV_AT_EPOCH":68096,"BSTAR":0.00037876953,"MEAN_MOTION_DOT":0.00037946,"MEAN_MOTION_DDOT":-5.84293e-7},{"OBJECT_NAME":"STSAT-3","OBJECT_ID":"2013-066G","EPOCH":"2026-09-12T07:52:47.129664","MEAN_MOTION":15.03168992,"ECCENTRICITY":0.001078,"INCLINATION":97.6309,"RA_OF_ASC_NODE":223.8664,"ARG_OF_PERICENTER":97.9076,"MEAN_ANOMALY":262.3373,"EPHEMERIS_TYPE":0,"CLASSIFICATION_TYPE":"U","NORAD_CAT_ID":39422,"ELEMENT_SET_NO":999,"REV_AT_EPOCH":69729,"BSTAR":0.00022542143,"MEAN_MOTION_DOT":0.00002989,"MEAN_MOTION_DDOT":0},{"OBJECT_NAME":"SWARM B","OBJECT_ID":"2013-067A","EPOCH":"2026-09-12T06:08:59.995680","MEAN_MOTION":15.29026961,"ECCENTRICITY":0.00034575,"INCLINATION":87.7445,"RA_OF_ASC_NODE":315.8802,"ARG_OF_PERICENTER":91.0145,"MEAN_ANOMALY":269.1501,"EPHEMERIS_TYPE":0,"CLASSIFICATION_TYPE":"U","NORAD_CAT_ID":39451,"ELEMENT_SET_NO":999,"REV_AT_EPOCH":69654,"BSTAR":0.000080342816,"MEAN_MOTION_DOT":0.00002299,"MEAN_MOTION_DDOT":0},{"OBJECT_NAME":"SWARM A","OBJECT_ID":"2013-067B","EPOCH":"2026-09-12T08:08:08.649600","MEAN_MOTION":15.50718113,"ECCENTRICITY":0.0002345,"INCLINATION":87.3354,"RA_OF_ASC_NODE":23.8574,"ARG_OF_PERICENTER":99.2125,"MEAN_ANOMALY":260.9401,"EPHEMERIS_TYPE":0,"CLASSIFICATION_TYPE":"U","NORAD_CAT_ID":39452,"ELEMENT_SET_NO":999,"REV_AT_EPOCH":71975,"BSTAR":0.00015237659,"MEAN_MOTION_DOT":0.00008795,"MEAN_MOTION_DDOT":0},{"OBJECT_NAME":"SWARM C","OBJECT_ID":"2013-067C","EPOCH":"2026-09-12T08:07:58.959840","MEAN_MOTION":15.50716618,"ECCENTRICITY":0.00023483,"INCLINATION":87.3358,"RA_OF_ASC_NODE":22.4403,"ARG_OF_PERICENTER":99.526,"MEAN_ANOMALY":260.6267,"EPHEMERIS_TYPE":0,"CLASSIFICATION_TYPE":"U","NORAD_CAT_ID":39453,"ELEMENT_SET_NO":999,"REV_AT_EPOCH":71971,"BSTAR":0.00014665479,"MEAN_MOTION_DOT":0.00008465,"MEAN_MOTION_DDOT":0},{"OBJECT_NAME":"BRITE-CA1 (TORONTO)","OBJECT_ID":"2014-033L","EPOCH":"2026-09-12T03:19:39.965664","MEAN_MOTION":14.72810461,"ECCENTRICITY":0.00783486,"INCLINATION":97.9852,"RA_OF_ASC_NODE":22.5213,"ARG_OF_PERICENTER":359.5828,"MEAN_ANOMALY":0.5301,"EPHEMERIS_TYPE":0,"CLASSIFICATION_TYPE":"U","NORAD_CAT_ID":40020,"ELEMENT_SET_NO":999,"REV_AT_EPOCH":65501,"BSTAR":0.000073122505,"MEAN_MOTION_DOT":0.00000436,"MEAN_MOTION_DDOT":0},{"OBJECT_NAME":"OCO 2","OBJECT_ID":"2014-035A","EPOCH":"2026-09-12T03:49:13.863072","MEAN_MOTION":14.57087933,"ECCENTRICITY":0.00016736,"INCLINATION":98.2062,"RA_OF_ASC_NODE":195.1438,"ARG_OF_PERICENTER":80.3099,"MEAN_ANOMALY":279.8288,"EPHEMERIS_TYPE":0,"CLASSIFICATION_TYPE":"U","NORAD_CAT_ID":40059,"ELEMENT_SET_NO":999,"REV_AT_EPOCH":64871,"BSTAR":0.000065410471,"MEAN_MOTION_DOT":0.00000249,"MEAN_MOTION_DDOT":0},{"OBJECT_NAME":"BRITE-PL2 (HEWELIUSZ)","OBJECT_ID":"2014-049B","EPOCH":"2026-09-12T03:09:14.379552","MEAN_MOTION":14.94848763,"ECCENTRICITY":0.00140473,"INCLINATION":97.9165,"RA_OF_ASC_NODE":7.8481,"ARG_OF_PERICENTER":175.1387,"MEAN_ANOMALY":184.9972,"EPHEMERIS_TYPE":0,"CLASSIFICATION_TYPE":"U","NORAD_CAT_ID":40119,"ELEMENT_SET_NO":999,"REV_AT_EPOCH":65443,"BSTAR":0.00016541824,"MEAN_MOTION_DOT":0.00001745,"MEAN_MOTION_DDOT":0},{"OBJECT_NAME":"MMS 1","OBJECT_ID":"2015-011A","EPOCH":"2026-09-12T08:00:01.999872","MEAN_MOTION":0.28342593,"ECCENTRICITY":0.82599138,"INCLINATION":72.9221,"RA_OF_ASC_NODE":347.7877,"ARG_OF_PERICENTER":169.3357,"MEAN_ANOMALY":188.1776,"EPHEMERIS_TYPE":0,"CLASSIFICATION_TYPE":"U","NORAD_CAT_ID":40482,"ELEMENT_SET_NO":999,"REV_AT_EPOCH":140,"BSTAR":0,"MEAN_MOTION_DOT":-0.00001792,"MEAN_MOTION_DDOT":0},{"OBJECT_NAME":"MMS 2","OBJECT_ID":"2015-011B","EPOCH":"2026-09-12T08:00:01.999872","MEAN_MOTION":0.28342545,"ECCENTRICITY":0.82627502,"INCLINATION":72.9265,"RA_OF_ASC_NODE":347.7866,"ARG_OF_PERICENTER":169.3371,"MEAN_ANOMALY":188.1566,"EPHEMERIS_TYPE":0,"CLASSIFICATION_TYPE":"U","NORAD_CAT_ID":40483,"ELEMENT_SET_NO":999,"REV_AT_EPOCH":140,"BSTAR":0,"MEAN_MOTION_DOT":-0.00001793,"MEAN_MOTION_DDOT":0},{"OBJECT_NAME":"MMS 3","OBJECT_ID":"2015-011C","EPOCH":"2026-09-12T08:00:01.999872","MEAN_MOTION":0.28342646,"ECCENTRICITY":0.82611981,"INCLINATION":72.9269,"RA_OF_ASC_NODE":347.7986,"ARG_OF_PERICENTER":169.3458,"MEAN_ANOMALY":188.1309,"EPHEMERIS_TYPE":0,"CLASSIFICATION_TYPE":"U","NORAD_CAT_ID":40484,"ELEMENT_SET_NO":999,"REV_AT_EPOCH":140,"BSTAR":0,"MEAN_MOTION_DOT":-0.00001793,"MEAN_MOTION_DDOT":0},{"OBJECT_NAME":"MMS 4","OBJECT_ID":"2015-011D","EPOCH":"2026-09-12T08:00:01.999872","MEAN_MOTION":0.28342531,"ECCENTRICITY":0.82611902,"INCLINATION":72.9197,"RA_OF_ASC_NODE":347.7826,"ARG_OF_PERICENTER":169.3555,"MEAN_ANOMALY":188.1263,"EPHEMERIS_TYPE":0,"CLASSIFICATION_TYPE":"U","NORAD_CAT_ID":40485,"ELEMENT_SET_NO":999,"REV_AT_EPOCH":140,"BSTAR":0,"MEAN_MOTION_DOT":-0.00001793,"MEAN_MOTION_DDOT":0},{"OBJECT_NAME":"ASTROSAT","OBJECT_ID":"2015-052A","EPOCH":"2026-09-11T19:16:23.601216","MEAN_MOTION":14.82637343,"ECCENTRICITY":0.00079461,"INCLINATION":5.9967,"RA_OF_ASC_NODE":251.8326,"ARG_OF_PERICENTER":195.9703,"MEAN_ANOMALY":164.0174,"EPHEMERIS_TYPE":0,"CLASSIFICATION_TYPE":"U","NORAD_CAT_ID":40930,"ELEMENT_SET_NO":999,"REV_AT_EPOCH":59270,"BSTAR":0.000080889331,"MEAN_MOTION_DOT":0.00001338,"MEAN_MOTION_DDOT":0},{"OBJECT_NAME":"DAMPE","OBJECT_ID":"2015-078A","EPOCH":"2026-09-12T07:09:42.018336","MEAN_MOTION":15.30971272,"ECCENTRICITY":0.00132627,"INCLINATION":97.4592,"RA_OF_ASC_NODE":261.2229,"ARG_OF_PERICENTER":121.6003,"MEAN_ANOMALY":238.6534,"EPHEMERIS_TYPE":0,"CLASSIFICATION_TYPE":"U","NORAD_CAT_ID":41173,"ELEMENT_SET_NO":999,"REV_AT_EPOCH":59787,"BSTAR":0.000028477327,"MEAN_MOTION_DOT":0.00000776,"MEAN_MOTION_DDOT":0},{"OBJECT_NAME":"PISAT","OBJECT_ID":"2016-059B","EPOCH":"2026-09-12T06:13:34.117824","MEAN_MOTION":14.69120723,"ECCENTRICITY":0.00275392,"INCLINATION":97.8244,"RA_OF_ASC_NODE":252.0036,"ARG_OF_PERICENTER":288.4502,"MEAN_ANOMALY":71.3712,"EPHEMERIS_TYPE":0,"CLASSIFICATION_TYPE":"U","NORAD_CAT_ID":41784,"ELEMENT_SET_NO":999,"REV_AT_EPOCH":53252,"BSTAR":0.00011491638,"MEAN_MOTION_DOT":0.00000631,"MEAN_MOTION_DDOT":0},{"OBJECT_NAME":"HXMT (HUIYAN)","OBJECT_ID":"2017-034A","EPOCH":"2026-09-12T03:23:18.874752","MEAN_MOTION":15.19110868,"ECCENTRICITY":0.0031975,"INCLINATION":43.0145,"RA_OF_ASC_NODE":58.6158,"ARG_OF_PERICENTER":334.7522,"MEAN_ANOMALY":25.1763,"EPHEMERIS_TYPE":0,"CLASSIFICATION_TYPE":"U","NORAD_CAT_ID":42758,"ELEMENT_SET_NO":999,"REV_AT_EPOCH":51088,"BSTAR":0.00017389257,"MEAN_MOTION_DOT":0.0000352,"MEAN_MOTION_DDOT":0},{"OBJECT_NAME":"FLYING LAPTOP","OBJECT_ID":"2017-042G","EPOCH":"2026-09-12T07:02:12.418656","MEAN_MOTION":15.01579794,"ECCENTRICITY":0.00162214,"INCLINATION":97.4996,"RA_OF_ASC_NODE":47.7012,"ARG_OF_PERICENTER":183.7209,"MEAN_ANOMALY":176.3898,"EPHEMERIS_TYPE":0,"CLASSIFICATION_TYPE":"U","NORAD_CAT_ID":42831,"ELEMENT_SET_NO":999,"REV_AT_EPOCH":49952,"BSTAR":0.0001276033,"MEAN_MOTION_DOT":0.00001599,"MEAN_MOTION_DDOT":0},{"OBJECT_NAME":"ZHANGHENG 1-01 (CSES-1)","OBJECT_ID":"2018-015C","EPOCH":"2026-09-12T07:36:50.243616","MEAN_MOTION":15.20589907,"ECCENTRICITY":0.00137864,"INCLINATION":97.6953,"RA_OF_ASC_NODE":62.7536,"ARG_OF_PERICENTER":339.0201,"MEAN_ANOMALY":21.0466,"EPHEMERIS_TYPE":0,"CLASSIFICATION_TYPE":"U","NORAD_CAT_ID":43194,"ELEMENT_SET_NO":999,"REV_AT_EPOCH":47788,"BSTAR":0.00020168277,"MEAN_MOTION_DOT":0.00004356,"MEAN_MOTION_DDOT":0},{"OBJECT_NAME":"SALSAT","OBJECT_ID":"2020-068K","EPOCH":"2026-09-11T23:28:21.147456","MEAN_MOTION":15.30885844,"ECCENTRICITY":0.00094697,"INCLINATION":97.888,"RA_OF_ASC_NODE":263.4175,"ARG_OF_PERICENTER":9.1845,"MEAN_ANOMALY":350.9566,"EPHEMERIS_TYPE":0,"CLASSIFICATION_TYPE":"U","NORAD_CAT_ID":46495,"ELEMENT_SET_NO":999,"REV_AT_EPOCH":32863,"BSTAR":0.00020261281,"MEAN_MOTION_DOT":0.00005968,"MEAN_MOTION_DDOT":0},{"OBJECT_NAME":"IXPE","OBJECT_ID":"2021-121A","EPOCH":"2026-09-12T08:00:01.999872","MEAN_MOTION":15.10948202,"ECCENTRICITY":0.00072602,"INCLINATION":0.2305,"RA_OF_ASC_NODE":18.1297,"ARG_OF_PERICENTER":321.2451,"MEAN_ANOMALY":28.4444,"EPHEMERIS_TYPE":0,"CLASSIFICATION_TYPE":"U","NORAD_CAT_ID":49954,"ELEMENT_SET_NO":999,"REV_AT_EPOCH":544,"BSTAR":0.00041881361,"MEAN_MOTION_DOT":0.00008129,"MEAN_MOTION_DDOT":0},{"OBJECT_NAME":"SMILE","OBJECT_ID":"2026-109A","EPOCH":"2026-09-08T19:23:04.222464","MEAN_MOTION":0.47517332,"ECCENTRICITY":0.81869537,"INCLINATION":70.0169,"RA_OF_ASC_NODE":206.2692,"ARG_OF_PERICENTER":285.8683,"MEAN_ANOMALY":5.3377,"EPHEMERIS_TYPE":0,"CLASSIFICATION_TYPE":"U","NORAD_CAT_ID":69123,"ELEMENT_SET_NO":999,"REV_AT_EPOCH":34,"BSTAR":0,"MEAN_MOTION_DOT":0.00000485,"MEAN_MOTION_DDOT":0}]